Regional Weather Roundup
Issued by NWS Sioux Falls, SD

Home | Current Version | Previous Version | Graphics & Text | Print | Product List | Glossary On
Versions: 1 2 3 4 5 6 7 8 9 10 11 12 13 14 15 16 17 18 19 20 21 22 23 24 25 26 27 28 29 30 31 32 33 34 35 36 37 38 39 40 41 42 43 44 45 46 47 48 49 50
000
ASUS43 KFSD 171610
RWRFSD

WEATHER ROUNDUP FOR SE SOUTH DAKOTA/SW MINNESOTA/NW IOWA
NATIONAL WEATHER SERVICE SIOUX FALLS SD
1100 AM CDT THU AUG 17 2017

NOTE: "FAIR" INDICATES FEW OR NO CLOUDS BELOW 12,000 FEET WITH NO
SIGNIFICANT WEATHER AND OR OBSTRUCTIONS TO VISIBILITY.


SDZ038>040-050-052>070-171700-
SOUTHEAST SOUTH DAKOTA

CITY           SKY/WX    TMP DP  RH WIND       PRES   REMARKS
BROOKINGS      MOSUNNY   68  60  75 NW14      29.88S
CHAMBERLAIN    SUNNY     74  56  53 CALM      29.96F
HURON          SUNNY     71  61  70 NW9       29.92S
MADISON        FAIR      68  64  88 NW17G24   29.90S
MITCHELL       SUNNY     72  61  68 NW13      29.94R
SIOUX FALLS    MOSUNNY   71  61  70 NW17      29.89S
WINNER         FAIR      78  58  49 SW5       29.97S
YANKTON        SUNNY     72  60  66 W16       29.94R
$$

MNZ071-072-080-081-089-090-097-098-171700-
SOUTHWEST MINNESOTA

CITY           SKY/WX    TMP DP  RH WIND       PRES   REMARKS
FAIRMONT       CLOUDY    68  62  81 NW21G29   29.79R
JACKSON        CLOUDY    64  59  82 W17G26    29.83S
LUVERNE        PTSUNNY   66  55  68 NW14G21   29.88S
MARSHALL       CLOUDY    64  61  90 NW22      29.82R
MONTEVIDEO     CLOUDY    64  64 100 N13G22    29.81R
PIPESTONE      PTSUNNY   68  61  77 NW16      29.87S
REDWOOD FALLS  CLOUDY    66  61  84 NW14G28   29.77R
TRACY          CLOUDY    64  63  96 NW16G23   29.84R
WINDOM         MOSUNNY   64  61  88 W23G29    29.82R
WORTHINGTON    CLOUDY    65  60  84 W17       29.86R
$$

IAZ001>003-012>014-020>022-031-032-NEZ013-014-SDZ071-171700-
NORTHWEST IOWA

CITY           SKY/WX    TMP DP  RH WIND       PRES   REMARKS
CHEROKEE       CLOUDY    68  62  79 NW17G23   29.87S
DENISON        MOSUNNY   72  61  68 NW14G23   29.90S
ESTHERVILLE    CLOUDY    65  63  93 NW17G23   29.81R
LE MARS        MOSUNNY   72  61  68 NW12G21   29.89F
ORANGE CITY    PTSUNNY   70  63  78 NW15G21   29.89S
SHELDON        CLOUDY    66  59  77 W8G20     29.87S
SIOUX CITY     SUNNY     73  61  65 NW21G31   29.89F
SPENCER        CLOUDY    67  61  81 W22G29    29.85R
STORM LAKE       N/A     68  61  77 NW20G26   29.86R
$$

ABBREVIATIONS USED IN REMARKS
   TC - TEMPERATURE IN CELSIUS
  WCI - WIND CHILL INDEX
   HX - HEAT INDEX
  VSB - VISIBILITY





USA.gov is the U.S. government's official web portal to all federal, state and local government web resources and services.